Time,TemperatureF,DewpointF,PressureIn,WindDirection,WindDirectionDegrees,WindSpeedMPH,WindSpeedGustMPH,Humidity,HourlyPrecipIn,Conditions,Clouds,dailyrainin,SoftwareType,DateUTC
2013-09-08 00:01:00,61.2,53.7,29.53,South,180,0.0,1.6,76,0.00,,,0.00,WUHU216HW,2013-09-08 04:01:00,
2013-09-08 00:02:00,61.2,53.7,29.53,SSE,158,0.0,1.6,76,0.00,,,0.00,WUHU216HW,2013-09-08 04:02:00,
2013-09-08 00:07:00,61.2,53.7,29.53,SSE,158,0.4,1.3,76,0.00,,,0.00,WUHU216HW,2013-09-08 04:07:00,
2013-09-08 00:12:00,61.2,53.7,29.53,ESE,113,1.1,1.8,76,0.00,,,0.00,WUHU216HW,2013-09-08 04:12:00,
2013-09-08 00:17:00,61.2,53.7,29.53,South,180,2.7,2.7,76,0.00,,,0.00,WUHU216HW,2013-09-08 04:17:00,
2013-09-08 00:22:00,61.2,53.7,29.54,West,270,0.0,2.7,76,0.00,,,0.00,WUHU216HW,2013-09-08 04:22:00,
2013-09-08 00:27:00,61.2,54.0,29.54,SE,135,1.1,1.8,77,0.00,,,0.00,WUHU216HW,2013-09-08 04:27:00,
2013-09-08 00:32:00,61.2,53.7,29.54,SE,135,0.9,2.0,76,0.00,,,0.00,WUHU216HW,2013-09-08 04:32:00,
2013-09-08 00:37:00,61.4,54.1,29.54,NW,315,1.8,2.5,77,0.00,,,0.00,WUHU216HW,2013-09-08 04:37:00,
2013-09-08 00:42:00,61.2,54.0,29.54,NW,315,0.0,2.5,77,0.00,,,0.00,WUHU216HW,2013-09-08 04:42:00,
2013-09-08 00:47:00,61.2,54.4,29.54,North,0,1.3,1.3,78,0.00,,,0.00,WUHU216HW,2013-09-08 04:47:00,
2013-09-08 00:52:00,61.0,53.8,29.54,NNW,338,0.0,2.0,77,0.00,,,0.00,WUHU216HW,2013-09-08 04:52:00,
2013-09-08 00:57:00,61.0,53.8,29.53,NE,45,0.4,2.0,77,0.00,,,0.00,WUHU216HW,2013-09-08 04:57:00,
2013-09-08 01:02:00,61.0,53.8,29.53,NW,315,0.0,1.8,77,0.00,,,0.00,WUHU216HW,2013-09-08 05:02:00,
2013-09-08 01:07:00,61.0,53.8,29.53,West,270,3.4,3.4,77,0.00,,,0.00,WUHU216HW,2013-09-08 05:07:00,
2013-09-08 01:12:00,61.2,54.0,29.53,NNE,23,0.2,3.4,77,0.00,,,0.00,WUHU216HW,2013-09-08 05:12:00,
2013-09-08 01:17:00,61.4,54.1,29.53,West,270,0.0,1.6,77,0.00,,,0.00,WUHU216HW,2013-09-08 05:17:00,
2013-09-08 01:22:00,61.4,53.7,29.53,WSW,248,1.6,1.6,76,0.00,,,0.00,WUHU216HW,2013-09-08 05:22:00,
2013-09-08 01:27:00,61.6,53.9,29.53,SW,225,0.4,1.8,76,0.00,,,0.00,WUHU216HW,2013-09-08 05:27:00,
2013-09-08 01:32:00,61.6,53.9,29.53,WSW,248,0.4,1.8,76,0.00,,,0.00,WUHU216HW,2013-09-08 05:32:00,
2013-09-08 01:37:00,61.6,53.9,29.52,SSW,203,0.4,1.8,76,0.00,,,0.00,WUHU216HW,2013-09-08 05:37:00,
2013-09-08 01:42:00,61.6,53.9,29.52,West,270,2.2,2.7,76,0.00,,,0.00,WUHU216HW,2013-09-08 05:42:00,
2013-09-08 01:47:00,61.7,54.1,29.52,WSW,248,3.6,3.6,76,0.00,,,0.00,WUHU216HW,2013-09-08 05:47:00,
2013-09-08 01:52:00,62.1,54.5,29.51,NW,315,0.4,3.6,76,0.00,,,0.00,WUHU216HW,2013-09-08 05:52:00,
2013-09-08 01:57:00,62.3,54.5,29.51,SSW,203,2.7,2.7,76,0.00,,,0.00,WUHU216HW,2013-09-08 05:57:00,
2013-09-08 02:02:00,62.5,54.7,29.51,SW,225,0.0,2.9,76,0.00,,,0.00,WUHU216HW,2013-09-08 06:02:00,
2013-09-08 02:07:00,62.5,54.7,29.51,SW,225,0.4,2.9,76,0.00,,,0.00,WUHU216HW,2013-09-08 06:07:00,
2013-09-08 02:12:00,62.6,54.9,29.51,SW,225,4.0,4.0,76,0.00,,,0.00,WUHU216HW,2013-09-08 06:12:00,
2013-09-08 02:17:00,62.6,54.9,29.52,WSW,248,1.1,4.0,76,0.00,,,0.00,WUHU216HW,2013-09-08 06:17:00,
2013-09-08 02:22:00,62.6,54.9,29.52,SSW,203,0.0,1.8,76,0.00,,,0.00,WUHU216HW,2013-09-08 06:22:00,
2013-09-08 02:27:00,62.8,55.1,29.51,WSW,248,3.1,3.1,76,0.00,,,0.00,WUHU216HW,2013-09-08 06:27:00,
2013-09-08 02:32:00,62.8,55.1,29.51,SW,225,1.3,3.1,76,0.00,,,0.00,WUHU216HW,2013-09-08 06:32:00,
2013-09-08 02:37:00,62.8,55.1,29.50,SW,225,0.7,2.7,76,0.00,,,0.00,WUHU216HW,2013-09-08 06:37:00,
2013-09-08 02:42:00,62.8,55.1,29.50,SW,225,0.9,2.7,76,0.00,,,0.00,WUHU216HW,2013-09-08 06:42:00,
2013-09-08 02:47:00,62.8,55.1,29.50,SW,225,1.8,2.5,76,0.00,,,0.00,WUHU216HW,2013-09-08 06:47:00,
2013-09-08 02:52:00,63.0,55.3,29.50,West,270,0.4,2.5,76,0.00,,,0.00,WUHU216HW,2013-09-08 06:52:00,
2013-09-08 02:57:00,63.0,55.3,29.50,North,0,1.8,2.2,76,0.00,,,0.00,WUHU216HW,2013-09-08 06:57:00,
2013-09-08 03:02:00,63.2,55.4,29.49,SW,225,1.1,1.8,76,0.00,,,0.00,WUHU216HW,2013-09-08 07:02:00,
2013-09-08 03:07:00,63.2,55.4,29.50,WSW,248,1.6,1.6,76,0.00,,,0.00,WUHU216HW,2013-09-08 07:07:00,
2013-09-08 03:12:00,63.4,55.6,29.49,SW,225,1.1,1.8,76,0.00,,,0.00,WUHU216HW,2013-09-08 07:12:00,
2013-09-08 03:17:00,63.2,55.4,29.49,SE,135,0.0,1.8,76,0.00,,,0.00,WUHU216HW,2013-09-08 07:17:00,
2013-09-08 03:22:00,63.2,55.4,29.50,SE,135,0.0,1.1,76,0.00,,,0.00,WUHU216HW,2013-09-08 07:22:00,
2013-09-08 03:27:00,63.0,55.3,29.50,SE,135,0.9,0.9,76,0.00,,,0.00,WUHU216HW,2013-09-08 07:27:00,
2013-09-08 03:32:00,63.0,55.3,29.50,NNW,338,0.0,0.9,76,0.00,,,0.00,WUHU216HW,2013-09-08 07:32:00,
2013-09-08 03:37:00,62.8,55.1,29.50,South,180,0.4,1.3,76,0.00,,,0.00,WUHU216HW,2013-09-08 07:37:00,
2013-09-08 03:42:00,62.6,55.3,29.49,SSW,203,2.2,2.2,77,0.00,,,0.00,WUHU216HW,2013-09-08 07:42:00,
2013-09-08 03:47:00,62.5,55.1,29.49,South,180,2.2,3.4,77,0.00,,,0.00,WUHU216HW,2013-09-08 07:47:00,
2013-09-08 03:52:00,62.5,55.1,29.49,SE,135,0.4,3.4,77,0.00,,,0.00,WUHU216HW,2013-09-08 07:52:00,
2013-09-08 03:57:00,62.3,55.6,29.49,NE,45,2.2,2.9,79,0.00,,,0.00,WUHU216HW,2013-09-08 07:57:00,
2013-09-08 04:02:00,62.1,55.2,29.49,WSW,248,0.0,2.9,78,0.00,,,0.00,WUHU216HW,2013-09-08 08:02:00,
2013-09-08 04:07:00,62.1,55.2,29.49,West,270,1.1,1.1,78,0.00,,,0.00,WUHU216HW,2013-09-08 08:07:00,
2013-09-08 04:12:00,62.1,55.2,29.49,NW,315,0.4,1.3,78,0.00,,,0.00,WUHU216HW,2013-09-08 08:12:00,
2013-09-08 04:17:00,61.9,55.4,29.49,West,270,0.0,1.3,79,0.00,,,0.00,WUHU216HW,2013-09-08 08:17:00,
2013-09-08 04:22:00,61.9,55.4,29.49,SW,225,1.3,1.3,79,0.00,,,0.00,WUHU216HW,2013-09-08 08:22:00,
2013-09-08 04:27:00,61.9,55.4,29.48,SW,225,0.0,2.2,79,0.00,,,0.00,WUHU216HW,2013-09-08 08:27:00,
2013-09-08 04:32:00,61.9,55.4,29.48,West,270,2.5,4.0,79,0.00,,,0.00,WUHU216HW,2013-09-08 08:32:00,
2013-09-08 04:37:00,62.3,55.6,29.48,SSW,203,2.7,4.0,79,0.00,,,0.00,WUHU216HW,2013-09-08 08:37:00,
2013-09-08 04:42:00,62.5,55.4,29.48,South,180,1.1,2.7,78,0.00,,,0.00,WUHU216HW,2013-09-08 08:42:00,
2013-09-08 04:47:00,62.6,55.6,29.48,SW,225,2.7,2.7,78,0.00,,,0.00,WUHU216HW,2013-09-08 08:47:00,
2013-09-08 04:52:00,62.6,55.6,29.47,SSW,203,2.9,2.9,78,0.00,,,0.00,WUHU216HW,2013-09-08 08:52:00,
2013-09-08 04:57:00,62.6,55.6,29.47,SW,225,0.7,3.6,78,0.00,,,0.00,WUHU216HW,2013-09-08 08:57:00,
2013-09-08 05:02:00,62.6,55.6,29.47,WNW,293,3.8,4.0,78,0.00,,,0.00,WUHU216HW,2013-09-08 09:02:00,
2013-09-08 05:07:00,62.8,55.8,29.46,NNW,338,1.1,4.0,78,0.00,,,0.00,WUHU216HW,2013-09-08 09:07:00,
2013-09-08 05:12:00,62.8,55.8,29.46,NNW,338,0.2,2.7,78,0.00,,,0.00,WUHU216HW,2013-09-08 09:12:00,
2013-09-08 05:17:00,62.8,55.8,29.47,SW,225,1.1,2.7,78,0.00,,,0.00,WUHU216HW,2013-09-08 09:17:00,
2013-09-08 05:22:00,62.8,55.4,29.47,West,270,1.1,2.7,77,0.00,,,0.00,WUHU216HW,2013-09-08 09:22:00,
2013-09-08 05:27:00,62.6,55.3,29.46,South,180,1.8,4.0,77,0.00,,,0.00,WUHU216HW,2013-09-08 09:27:00,
2013-09-08 05:32:00,62.5,55.4,29.46,SSW,203,0.7,4.3,78,0.00,,,0.00,WUHU216HW,2013-09-08 09:32:00,
2013-09-08 05:37:00,62.3,55.3,29.46,South,180,2.9,4.3,78,0.00,,,0.00,WUHU216HW,2013-09-08 09:37:00,
2013-09-08 05:42:00,62.3,55.3,29.48,SW,225,2.2,4.5,78,0.00,,,0.00,WUHU216HW,2013-09-08 09:42:00,
2013-09-08 05:47:00,62.1,55.5,29.48,WNW,293,0.4,5.4,79,0.00,,,0.00,WUHU216HW,2013-09-08 09:47:00,
2013-09-08 05:52:00,62.3,56.0,29.48,North,0,1.3,5.4,80,0.00,,,0.00,WUHU216HW,2013-09-08 09:52:00,
2013-09-08 05:57:00,62.5,55.8,29.48,WNW,293,0.4,4.3,79,0.00,,,0.00,WUHU216HW,2013-09-08 09:57:00,
2013-09-08 06:02:00,62.5,55.8,29.48,WSW,248,2.0,2.0,79,0.00,,,0.00,WUHU216HW,2013-09-08 10:02:00,
2013-09-08 06:07:00,62.5,55.8,29.48,North,0,0.2,2.0,79,0.00,,,0.00,WUHU216HW,2013-09-08 10:07:00,
2013-09-08 06:12:00,62.5,55.8,29.48,SW,225,0.7,2.0,79,0.00,,,0.00,WUHU216HW,2013-09-08 10:12:00,
2013-09-08 06:17:00,62.3,55.6,29.48,ENE,68,0.0,0.7,79,0.00,,,0.00,WUHU216HW,2013-09-08 10:17:00,
2013-09-08 06:22:00,62.3,55.6,29.49,East,90,0.0,0.9,79,0.00,,,0.00,WUHU216HW,2013-09-08 10:22:00,
2013-09-08 06:27:00,62.3,56.0,29.48,NE,45,0.7,0.9,80,0.00,,,0.00,WUHU216HW,2013-09-08 10:27:00,
2013-09-08 06:32:00,62.3,55.6,29.48,ESE,113,0.0,0.7,79,0.00,,,0.00,WUHU216HW,2013-09-08 10:32:00,
2013-09-08 06:37:00,62.5,56.2,29.48,NNE,23,1.8,1.8,80,0.00,,,0.00,WUHU216HW,2013-09-08 10:37:00,
2013-09-08 06:42:00,62.5,56.2,29.49,NNW,338,0.4,1.8,80,0.00,,,0.00,WUHU216HW,2013-09-08 10:42:00,
2013-09-08 06:47:00,62.6,56.3,29.49,SSW,203,0.0,1.8,80,0.00,,,0.00,WUHU216HW,2013-09-08 10:47:00,
2013-09-08 06:52:00,62.6,56.3,29.49,SSW,203,0.0,1.1,80,0.00,,,0.00,WUHU216HW,2013-09-08 10:52:00,
2013-09-08 06:57:00,62.5,56.2,29.49,East,90,0.9,1.1,80,0.00,,,0.00,WUHU216HW,2013-09-08 10:57:00,
2013-09-08 07:02:00,62.6,57.1,29.49,NNW,338,4.5,4.5,82,0.00,,,0.00,WUHU216HW,2013-09-08 11:02:00,
2013-09-08 07:07:00,62.6,57.1,29.48,North,0,2.0,4.5,82,0.00,,,0.00,WUHU216HW,2013-09-08 11:07:00,
2013-09-08 07:12:00,62.8,56.9,29.49,NNE,23,1.1,2.5,81,0.00,,,0.00,WUHU216HW,2013-09-08 11:12:00,
2013-09-08 07:17:00,63.0,57.1,29.48,NNE,23,0.4,1.6,81,0.00,,,0.00,WUHU216HW,2013-09-08 11:17:00,
2013-09-08 07:21:00,63.4,57.4,29.49,SSE,158,0.0,0.9,81,0.00,,,0.00,WUHU216HW,2013-09-08 11:21:00,
2013-09-08 07:26:00,63.5,57.2,29.49,SSW,203,1.1,1.8,80,0.00,,,0.00,WUHU216HW,2013-09-08 11:26:00,
2013-09-08 07:31:00,63.5,57.2,29.49,SSW,203,0.4,1.8,80,0.00,,,0.00,WUHU216HW,2013-09-08 11:31:00,
2013-09-08 07:36:00,63.4,57.1,29.49,ESE,113,1.8,4.9,80,0.00,,,0.00,WUHU216HW,2013-09-08 11:36:00,
2013-09-08 07:41:00,63.4,57.1,29.49,NE,45,1.8,4.9,80,0.00,,,0.00,WUHU216HW,2013-09-08 11:41:00,
2013-09-08 07:46:00,63.4,57.1,29.49,SSW,203,0.9,2.5,80,0.00,,,0.00,WUHU216HW,2013-09-08 11:46:00,
2013-09-08 07:51:00,63.7,57.8,29.49,WSW,248,1.8,4.3,81,0.00,,,0.00,WUHU216HW,2013-09-08 11:51:00,
2013-09-08 07:56:00,64.1,57.8,29.48,ENE,68,1.8,4.3,80,0.00,,,0.00,WUHU216HW,2013-09-08 11:56:00,
2013-09-08 08:01:00,64.4,58.5,29.49,ESE,113,1.1,2.5,81,0.00,,,0.00,WUHU216HW,2013-09-08 12:01:00,
2013-09-08 08:06:00,64.6,58.3,29.48,North,0,0.0,2.2,80,0.00,,,0.00,WUHU216HW,2013-09-08 12:06:00,
2013-09-08 08:11:00,64.4,58.1,29.49,ESE,113,0.7,2.2,80,0.00,,,0.00,WUHU216HW,2013-09-08 12:11:00,
2013-09-08 08:16:00,64.3,58.0,29.50,ENE,68,0.0,1.3,80,0.00,,,0.00,WUHU216HW,2013-09-08 12:16:00,
2013-09-08 08:21:00,64.3,58.3,29.49,ESE,113,0.4,1.3,81,0.00,,,0.00,WUHU216HW,2013-09-08 12:21:00,
2013-09-08 08:26:00,64.4,58.5,29.49,SE,135,1.1,2.0,81,0.00,,,0.00,WUHU216HW,2013-09-08 12:26:00,
2013-09-08 08:31:00,64.4,58.5,29.50,WNW,293,3.1,3.1,81,0.00,,,0.00,WUHU216HW,2013-09-08 12:31:00,
2013-09-08 08:36:00,64.3,58.7,29.50,WNW,293,5.8,5.8,82,0.00,,,0.00,WUHU216HW,2013-09-08 12:36:00,
2013-09-08 08:41:00,64.6,58.7,29.50,NW,315,6.3,6.3,81,0.00,,,0.00,WUHU216HW,2013-09-08 12:41:00,
2013-09-08 08:46:00,65.2,58.9,29.50,North,0,7.6,7.6,80,0.00,,,0.00,WUHU216HW,2013-09-08 12:46:00,
2013-09-08 08:51:00,65.2,58.5,29.51,NNW,338,9.6,9.6,79,0.00,,,0.00,WUHU216HW,2013-09-08 12:51:00,
2013-09-08 08:56:00,65.2,58.5,29.51,NNW,338,6.3,10.5,79,0.00,,,0.00,WUHU216HW,2013-09-08 12:56:00,
2013-09-08 09:01:00,65.3,58.7,29.51,NNW,338,6.5,10.5,79,0.00,,,0.00,WUHU216HW,2013-09-08 13:01:00,
2013-09-08 09:06:00,65.7,58.3,29.51,WNW,293,6.7,8.5,77,0.00,,,0.00,WUHU216HW,2013-09-08 13:06:00,
2013-09-08 09:11:00,66.1,58.6,29.51,NNW,338,3.8,11.6,77,0.00,,,0.00,WUHU216HW,2013-09-08 13:11:00,
2013-09-08 09:16:00,66.6,58.8,29.51,NNW,338,3.4,11.6,76,0.00,,,0.00,WUHU216HW,2013-09-08 13:16:00,
2013-09-08 09:21:00,67.5,59.0,29.50,WNW,293,5.4,10.5,74,0.00,,,0.00,WUHU216HW,2013-09-08 13:21:00,
2013-09-08 09:26:00,68.0,59.1,29.50,NW,315,4.5,10.5,73,0.00,,,0.00,WUHU216HW,2013-09-08 13:26:00,
2013-09-08 09:31:00,68.0,58.7,29.51,NNE,23,3.8,9.4,72,0.00,,,0.00,WUHU216HW,2013-09-08 13:31:00,
2013-09-08 09:36:00,68.2,58.9,29.51,NNW,338,7.6,9.4,72,0.00,,,0.00,WUHU216HW,2013-09-08 13:36:00,
2013-09-08 09:41:00,67.9,58.5,29.51,NW,315,7.4,10.7,72,0.00,,,0.00,WUHU216HW,2013-09-08 13:41:00,
2013-09-08 09:46:00,68.0,58.7,29.51,NW,315,4.0,15.0,72,0.00,,,0.00,WUHU216HW,2013-09-08 13:46:00,
2013-09-08 09:51:00,68.0,58.7,29.51,NW,315,8.1,15.0,72,0.00,,,0.00,WUHU216HW,2013-09-08 13:51:00,
2013-09-08 09:56:00,67.7,58.8,29.51,North,0,10.5,12.8,73,0.00,,,0.00,WUHU216HW,2013-09-08 13:56:00,
2013-09-08 10:01:00,67.9,59.0,29.51,WNW,293,6.9,11.9,73,0.00,,,0.00,WUHU216HW,2013-09-08 14:01:00,
2013-09-08 10:06:00,68.0,59.1,29.52,NW,315,11.2,12.1,73,0.00,,,0.00,WUHU216HW,2013-09-08 14:06:00,
2013-09-08 10:11:00,68.6,58.9,29.52,NNW,338,7.4,12.1,71,0.00,,,0.00,WUHU216HW,2013-09-08 14:11:00,
2013-09-08 10:16:00,68.2,59.2,29.52,NNW,338,7.2,11.2,73,0.00,,,0.00,WUHU216HW,2013-09-08 14:16:00,
2013-09-08 10:21:00,68.8,59.8,29.52,West,270,7.8,11.2,73,0.00,,,0.00,WUHU216HW,2013-09-08 14:21:00,
2013-09-08 10:26:00,68.6,58.9,29.52,NW,315,9.4,12.3,71,0.00,,,0.00,WUHU216HW,2013-09-08 14:26:00,
2013-09-08 10:31:00,68.4,59.0,29.52,NW,315,9.4,12.3,72,0.00,,,0.00,WUHU216HW,2013-09-08 14:31:00,
2013-09-08 10:36:00,68.2,58.5,29.52,NNW,338,7.2,17.7,71,0.00,,,0.00,WUHU216HW,2013-09-08 14:36:00,
2013-09-08 10:41:00,68.4,58.7,29.52,NW,315,6.3,17.7,71,0.00,,,0.00,WUHU216HW,2013-09-08 14:41:00,
2013-09-08 10:46:00,68.4,58.3,29.52,NNW,338,7.6,12.8,70,0.00,,,0.00,WUHU216HW,2013-09-08 14:46:00,
2013-09-08 10:51:00,68.4,57.9,29.52,NW,315,5.1,12.8,69,0.00,,,0.00,WUHU216HW,2013-09-08 14:51:00,
2013-09-08 10:56:00,68.4,57.9,29.52,North,0,6.3,12.8,69,0.00,,,0.00,WUHU216HW,2013-09-08 14:56:00,
2013-09-08 11:01:00,68.8,58.6,29.52,NNW,338,6.7,12.8,70,0.00,,,0.00,WUHU216HW,2013-09-08 15:01:00,
2013-09-08 11:06:00,69.1,58.1,29.52,North,0,8.1,8.7,68,0.00,,,0.00,WUHU216HW,2013-09-08 15:06:00,
2013-09-08 11:11:00,69.1,57.7,29.53,NNW,338,8.9,11.4,67,0.00,,,0.00,WUHU216HW,2013-09-08 15:11:00,
2013-09-08 11:16:00,69.3,57.9,29.53,North,0,7.6,11.4,67,0.00,,,0.00,WUHU216HW,2013-09-08 15:16:00,
2013-09-08 11:21:00,69.5,58.9,29.53,North,0,6.9,9.2,69,0.00,,,0.00,WUHU216HW,2013-09-08 15:21:00,
2013-09-08 11:26:00,69.5,57.6,29.53,WSW,248,10.7,13.4,66,0.00,,,0.00,WUHU216HW,2013-09-08 15:26:00,
2013-09-08 11:31:00,68.9,56.7,29.53,NNW,338,11.2,13.4,65,0.00,,,0.00,WUHU216HW,2013-09-08 15:31:00,
2013-09-08 11:36:00,68.8,56.9,29.53,North,0,4.5,12.8,66,0.00,,,0.00,WUHU216HW,2013-09-08 15:36:00,
2013-09-08 11:41:00,68.8,55.2,29.53,NNW,338,8.7,12.5,62,0.00,,,0.00,WUHU216HW,2013-09-08 15:41:00,
2013-09-08 11:46:00,68.6,55.4,29.53,NNW,338,10.5,10.5,63,0.00,,,0.00,WUHU216HW,2013-09-08 15:46:00,
2013-09-08 11:51:00,69.1,54.7,29.53,NNW,338,9.2,12.3,60,0.00,,,0.00,WUHU216HW,2013-09-08 15:51:00,
2013-09-08 11:56:00,69.3,54.9,29.54,NW,315,4.3,12.3,60,0.00,,,0.00,WUHU216HW,2013-09-08 15:56:00,
2013-09-08 12:01:00,69.3,54.4,29.54,NNW,338,6.5,12.1,59,0.00,,,0.00,WUHU216HW,2013-09-08 16:01:00,
2013-09-08 12:06:00,68.6,53.7,29.54,NNW,338,6.5,13.6,59,0.00,,,0.00,WUHU216HW,2013-09-08 16:06:00,
2013-09-08 12:11:00,68.6,53.7,29.54,North,0,11.2,18.8,59,0.00,,,0.00,WUHU216HW,2013-09-08 16:11:00,
2013-09-08 12:16:00,68.0,52.2,29.54,NNW,338,6.3,18.8,57,0.00,,,0.00,WUHU216HW,2013-09-08 16:16:00,
2013-09-08 12:21:00,68.2,51.4,29.54,NNW,338,10.5,12.3,55,0.00,,,0.00,WUHU216HW,2013-09-08 16:21:00,
2013-09-08 12:26:00,68.4,52.0,29.54,North,0,3.4,13.4,56,0.00,,,0.00,WUHU216HW,2013-09-08 16:26:00,
2013-09-08 12:31:00,68.4,52.0,29.54,North,0,10.5,13.4,56,0.00,,,0.00,WUHU216HW,2013-09-08 16:31:00,
2013-09-08 12:36:00,68.0,51.2,29.54,North,0,6.3,11.9,55,0.00,,,0.00,WUHU216HW,2013-09-08 16:36:00,
2013-09-08 12:41:00,68.2,52.4,29.55,North,0,7.4,11.6,57,0.00,,,0.00,WUHU216HW,2013-09-08 16:41:00,
2013-09-08 12:46:00,68.0,52.2,29.55,NW,315,4.9,7.8,57,0.00,,,0.00,WUHU216HW,2013-09-08 16:46:00,
2013-09-08 12:51:00,68.4,53.0,29.55,North,0,2.7,9.8,58,0.00,,,0.00,WUHU216HW,2013-09-08 16:51:00,
2013-09-08 12:56:00,68.8,51.9,29.55,WNW,293,5.1,9.8,55,0.00,,,0.00,WUHU216HW,2013-09-08 16:56:00,
2013-09-08 13:01:00,68.8,51.4,29.55,WNW,293,9.2,9.6,54,0.00,,,0.00,WUHU216HW,2013-09-08 17:01:00,
2013-09-08 13:06:00,68.2,49.4,29.55,NW,315,6.9,11.0,51,0.00,,,0.00,WUHU216HW,2013-09-08 17:06:00,
2013-09-08 13:11:00,68.0,48.8,29.55,NNW,338,12.1,12.1,50,0.00,,,0.00,WUHU216HW,2013-09-08 17:11:00,
2013-09-08 13:16:00,68.4,49.6,29.55,WNW,293,8.3,12.1,51,0.00,,,0.00,WUHU216HW,2013-09-08 17:16:00,
2013-09-08 13:21:00,68.8,50.0,29.55,WNW,293,6.5,11.0,51,0.00,,,0.00,WUHU216HW,2013-09-08 17:21:00,
2013-09-08 13:26:00,68.9,49.0,29.55,NNW,338,5.6,11.0,49,0.00,,,0.00,WUHU216HW,2013-09-08 17:26:00,
2013-09-08 13:31:00,69.1,49.1,29.55,WNW,293,7.6,9.2,49,0.00,,,0.00,WUHU216HW,2013-09-08 17:31:00,
2013-09-08 13:36:00,69.1,48.0,29.55,NW,315,11.4,11.4,47,0.00,,,0.00,WUHU216HW,2013-09-08 17:36:00,
2013-09-08 13:41:00,69.3,48.2,29.56,North,0,17.7,17.7,47,0.00,,,0.00,WUHU216HW,2013-09-08 17:41:00,
2013-09-08 13:46:00,69.3,48.2,29.56,NNW,338,10.1,17.7,47,0.00,,,0.00,WUHU216HW,2013-09-08 17:46:00,
2013-09-08 13:51:00,69.3,49.3,29.56,NNW,338,6.7,10.3,49,0.00,,,0.00,WUHU216HW,2013-09-08 17:51:00,
2013-09-08 13:56:00,69.3,48.7,29.56,North,0,6.3,10.3,48,0.00,,,0.00,WUHU216HW,2013-09-08 17:56:00,
2013-09-08 14:01:00,69.1,48.6,29.56,NNW,338,4.5,14.8,48,0.00,,,0.00,WUHU216HW,2013-09-08 18:01:00,
2013-09-08 14:06:00,69.1,48.0,29.56,NNW,338,9.8,14.8,47,0.00,,,0.00,WUHU216HW,2013-09-08 18:06:00,
2013-09-08 14:11:00,69.1,48.0,29.57,WNW,293,7.6,11.4,47,0.00,,,0.00,WUHU216HW,2013-09-08 18:11:00,
2013-09-08 14:16:00,69.1,48.0,29.57,NNW,338,4.9,11.2,47,0.00,,,0.00,WUHU216HW,2013-09-08 18:16:00,
2013-09-08 14:21:00,69.3,48.2,29.57,NW,315,11.4,11.4,47,0.00,,,0.00,WUHU216HW,2013-09-08 18:21:00,
2013-09-08 14:26:00,69.5,47.1,29.57,NNW,338,7.6,11.4,45,0.00,,,0.00,WUHU216HW,2013-09-08 18:26:00,
2013-09-08 14:31:00,69.7,48.4,29.57,North,0,4.7,8.1,47,0.00,,,0.00,WUHU216HW,2013-09-08 18:31:00,
2013-09-08 14:36:00,69.8,48.6,29.57,NNW,338,8.9,9.8,47,0.00,,,0.00,WUHU216HW,2013-09-08 18:36:00,
2013-09-08 14:41:00,69.8,47.4,29.57,NW,315,8.5,9.8,45,0.00,,,0.00,WUHU216HW,2013-09-08 18:41:00,
2013-09-08 14:46:00,69.7,47.9,29.57,NW,315,8.3,10.1,46,0.00,,,0.00,WUHU216HW,2013-09-08 18:46:00,
2013-09-08 14:51:00,69.7,47.9,29.57,NNW,338,6.9,10.1,46,0.00,,,0.00,WUHU216HW,2013-09-08 18:51:00,
2013-09-08 14:56:00,69.1,46.2,29.57,North,0,5.4,9.4,44,0.00,,,0.00,WUHU216HW,2013-09-08 18:56:00,
2013-09-08 15:01:00,69.1,46.2,29.57,NNW,338,4.7,9.4,44,0.00,,,0.00,WUHU216HW,2013-09-08 19:01:00,
2013-09-08 15:06:00,69.5,47.7,29.57,NW,315,4.7,11.4,46,0.00,,,0.00,WUHU216HW,2013-09-08 19:06:00,
2013-09-08 15:11:00,69.7,46.1,29.58,WSW,248,6.9,11.4,43,0.00,,,0.00,WUHU216HW,2013-09-08 19:11:00,
2013-09-08 15:16:00,69.5,46.5,29.58,North,0,6.9,10.5,44,0.00,,,0.00,WUHU216HW,2013-09-08 19:16:00,
2013-09-08 15:21:00,69.3,46.4,29.58,NNW,338,9.2,11.4,44,0.00,,,0.00,WUHU216HW,2013-09-08 19:21:00,
2013-09-08 15:26:00,69.3,48.2,29.58,West,270,4.7,11.4,47,0.00,,,0.00,WUHU216HW,2013-09-08 19:26:00,
2013-09-08 15:31:00,70.0,48.2,29.58,WNW,293,3.4,7.6,46,0.00,,,0.00,WUHU216HW,2013-09-08 19:31:00,
2013-09-08 15:36:00,70.0,48.2,29.58,North,0,7.2,7.4,46,0.00,,,0.00,WUHU216HW,2013-09-08 19:36:00,
2013-09-08 15:41:00,70.2,48.3,29.58,SW,225,2.9,9.8,46,0.00,,,0.00,WUHU216HW,2013-09-08 19:41:00,
2013-09-08 15:46:00,70.2,47.8,29.58,North,0,5.8,9.8,45,0.00,,,0.00,WUHU216HW,2013-09-08 19:46:00,
2013-09-08 15:51:00,69.8,47.4,29.58,NNW,338,5.6,9.6,45,0.00,,,0.00,WUHU216HW,2013-09-08 19:51:00,
2013-09-08 15:56:00,69.7,47.3,29.58,NW,315,6.3,8.9,45,0.00,,,0.00,WUHU216HW,2013-09-08 19:56:00,
2013-09-08 16:01:00,69.7,47.9,29.58,NNW,338,4.9,8.9,46,0.00,,,0.00,WUHU216HW,2013-09-08 20:01:00,
2013-09-08 16:06:00,70.0,48.2,29.58,North,0,4.9,8.5,46,0.00,,,0.00,WUHU216HW,2013-09-08 20:06:00,
2013-09-08 16:11:00,70.2,47.8,29.59,West,270,11.4,11.4,45,0.00,,,0.00,WUHU216HW,2013-09-08 20:11:00,
2013-09-08 16:16:00,70.2,47.8,29.59,WNW,293,8.7,11.4,45,0.00,,,0.00,WUHU216HW,2013-09-08 20:16:00,
2013-09-08 16:21:00,69.5,47.7,29.59,NNW,338,6.3,8.7,46,0.00,,,0.00,WUHU216HW,2013-09-08 20:21:00,
2013-09-08 16:26:00,69.1,47.3,29.59,North,0,8.5,11.6,46,0.00,,,0.00,WUHU216HW,2013-09-08 20:26:00,
2013-09-08 16:31:00,68.9,47.8,29.59,WSW,248,6.9,11.6,47,0.00,,,0.00,WUHU216HW,2013-09-08 20:31:00,
2013-09-08 16:36:00,68.9,47.8,29.59,WSW,248,4.5,8.5,47,0.00,,,0.00,WUHU216HW,2013-09-08 20:36:00,
2013-09-08 16:41:00,68.8,47.1,29.59,NW,315,6.9,8.5,46,0.00,,,0.00,WUHU216HW,2013-09-08 20:41:00,
2013-09-08 16:46:00,68.6,46.9,29.60,NNW,338,5.4,8.5,46,0.00,,,0.00,WUHU216HW,2013-09-08 20:46:00,
2013-09-08 16:51:00,68.6,46.3,29.59,West,270,5.4,9.8,45,0.00,,,0.00,WUHU216HW,2013-09-08 20:51:00,
2013-09-08 16:56:00,68.8,47.6,29.59,WNW,293,3.6,9.8,47,0.00,,,0.00,WUHU216HW,2013-09-08 20:56:00,
2013-09-08 17:01:00,68.8,47.1,29.60,SSW,203,3.4,6.9,46,0.00,,,0.00,WUHU216HW,2013-09-08 21:01:00,
2013-09-08 17:06:00,68.9,46.6,29.60,NNW,338,4.0,6.7,45,0.00,,,0.00,WUHU216HW,2013-09-08 21:06:00,
2013-09-08 17:11:00,68.8,47.1,29.60,WSW,248,5.8,6.7,46,0.00,,,0.00,WUHU216HW,2013-09-08 21:11:00,
2013-09-08 17:16:00,68.2,45.4,29.61,NNW,338,7.6,8.5,44,0.00,,,0.00,WUHU216HW,2013-09-08 21:16:00,
2013-09-08 17:21:00,67.9,45.1,29.61,NNW,338,5.4,8.5,44,0.00,,,0.00,WUHU216HW,2013-09-08 21:21:00,
2013-09-08 17:26:00,67.9,43.8,29.61,NNW,338,4.7,6.7,42,0.00,,,0.00,WUHU216HW,2013-09-08 21:26:00,
2013-09-08 17:31:00,68.0,44.7,29.61,NW,315,2.2,7.8,43,0.00,,,0.00,WUHU216HW,2013-09-08 21:31:00,
2013-09-08 17:36:00,67.9,43.3,29.61,NNW,338,3.8,10.5,41,0.00,,,0.00,WUHU216HW,2013-09-08 21:36:00,
2013-09-08 17:41:00,67.7,41.8,29.61,North,0,6.3,10.5,39,0.00,,,0.00,WUHU216HW,2013-09-08 21:41:00,
2013-09-08 17:46:00,67.1,41.3,29.62,North,0,6.7,12.3,39,0.00,,,0.00,WUHU216HW,2013-09-08 21:46:00,
2013-09-08 17:51:00,67.0,41.1,29.62,North,0,8.3,12.3,39,0.00,,,0.00,WUHU216HW,2013-09-08 21:51:00,
2013-09-08 17:56:00,66.8,40.2,29.62,North,0,9.2,9.2,38,0.00,,,0.00,WUHU216HW,2013-09-08 21:56:00,
2013-09-08 18:01:00,66.6,40.9,29.62,North,0,6.5,12.8,39,0.00,,,0.00,WUHU216HW,2013-09-08 22:01:00,
2013-09-08 18:06:00,66.6,41.6,29.62,NNW,338,3.6,12.8,40,0.00,,,0.00,WUHU216HW,2013-09-08 22:06:00,
2013-09-08 18:11:00,66.2,39.8,29.62,NNE,23,11.9,11.9,38,0.00,,,0.00,WUHU216HW,2013-09-08 22:11:00,
2013-09-08 18:16:00,66.2,40.5,29.63,North,0,1.8,11.9,39,0.00,,,0.00,WUHU216HW,2013-09-08 22:16:00,
2013-09-08 18:21:00,66.1,40.3,29.63,North,0,5.4,8.7,39,0.00,,,0.00,WUHU216HW,2013-09-08 22:21:00,
2013-09-08 18:26:00,65.7,40.1,29.63,North,0,4.9,9.2,39,0.00,,,0.00,WUHU216HW,2013-09-08 22:26:00,
2013-09-08 18:31:00,65.5,40.6,29.63,NNW,338,4.7,9.2,40,0.00,,,0.00,WUHU216HW,2013-09-08 22:31:00,
2013-09-08 18:36:00,65.2,41.4,29.63,NNW,338,0.7,4.7,42,0.00,,,0.00,WUHU216HW,2013-09-08 22:36:00,
2013-09-08 18:41:00,65.2,42.0,29.64,WSW,248,2.5,2.5,43,0.00,,,0.00,WUHU216HW,2013-09-08 22:41:00,
2013-09-08 18:46:00,65.0,42.4,29.64,NW,315,0.4,2.5,44,0.00,,,0.00,WUHU216HW,2013-09-08 22:46:00,
2013-09-08 18:51:00,64.6,42.0,29.65,NW,315,1.1,2.0,44,0.00,,,0.00,WUHU216HW,2013-09-08 22:51:00,
2013-09-08 18:56:00,64.1,42.1,29.65,WNW,293,0.7,2.2,45,0.00,,,0.00,WUHU216HW,2013-09-08 22:56:00,
2013-09-08 19:01:00,63.5,41.7,29.65,NW,315,1.8,3.1,45,0.00,,,0.00,WUHU216HW,2013-09-08 23:01:00,
2013-09-08 19:06:00,62.8,41.6,29.65,NNW,338,0.7,3.1,46,0.00,,,0.00,WUHU216HW,2013-09-08 23:06:00,
2013-09-08 19:11:00,62.3,41.7,29.65,WNW,293,1.8,1.8,47,0.00,,,0.00,WUHU216HW,2013-09-08 23:11:00,
2013-09-08 19:16:00,61.7,42.4,29.66,WNW,293,2.7,3.1,49,0.00,,,0.00,WUHU216HW,2013-09-08 23:16:00,
2013-09-08 19:21:00,61.4,42.6,29.66,NNW,338,0.7,3.1,50,0.00,,,0.00,WUHU216HW,2013-09-08 23:21:00,
2013-09-08 19:26:00,61.0,42.8,29.66,NW,315,4.3,4.3,51,0.00,,,0.00,WUHU216HW,2013-09-08 23:26:00,
2013-09-08 19:31:00,60.8,42.6,29.67,WNW,293,3.4,4.3,51,0.00,,,0.00,WUHU216HW,2013-09-08 23:31:00,
2013-09-08 19:36:00,60.5,42.8,29.67,NNW,338,2.2,3.4,52,0.00,,,0.00,WUHU216HW,2013-09-08 23:36:00,
2013-09-08 19:41:00,60.1,42.4,29.68,NW,315,1.6,2.9,52,0.00,,,0.00,WUHU216HW,2013-09-08 23:41:00,
2013-09-08 19:46:00,59.9,42.8,29.68,West,270,6.0,6.0,53,0.00,,,0.00,WUHU216HW,2013-09-08 23:46:00,
2013-09-08 19:51:00,59.8,42.6,29.68,WNW,293,1.8,6.0,53,0.00,,,0.00,WUHU216HW,2013-09-08 23:51:00,
2013-09-08 19:56:00,59.6,42.4,29.68,NNW,338,3.4,3.8,53,0.00,,,0.00,WUHU216HW,2013-09-08 23:56:00,
2013-09-08 20:01:00,59.4,42.8,29.69,NW,315,1.8,3.4,54,0.00,,,0.00,WUHU216HW,2013-09-09 00:01:00,
2013-09-08 20:06:00,59.0,42.4,29.69,NW,315,1.8,3.4,54,0.00,,,0.00,WUHU216HW,2013-09-09 00:06:00,
2013-09-08 20:11:00,58.9,42.2,29.69,NNW,338,2.0,3.8,54,0.00,,,0.00,WUHU216HW,2013-09-09 00:11:00,
2013-09-08 20:16:00,58.7,42.0,29.70,North,0,1.1,3.8,54,0.00,,,0.00,WUHU216HW,2013-09-09 00:16:00,
2013-09-08 20:21:00,58.5,42.4,29.71,NNW,338,2.2,3.1,55,0.00,,,0.00,WUHU216HW,2013-09-09 00:21:00,
2013-09-08 20:26:00,58.3,42.2,29.71,NNW,338,1.1,3.4,55,0.00,,,0.00,WUHU216HW,2013-09-09 00:26:00,
2013-09-08 20:31:00,58.1,42.0,29.72,WNW,293,1.1,3.4,55,0.00,,,0.00,WUHU216HW,2013-09-09 00:31:00,
2013-09-08 20:36:00,58.0,41.9,29.72,West,270,2.9,2.9,55,0.00,,,0.00,WUHU216HW,2013-09-09 00:36:00,
2013-09-08 20:41:00,57.8,41.7,29.72,NW,315,1.3,2.9,55,0.00,,,0.00,WUHU216HW,2013-09-09 00:41:00,
2013-09-08 20:46:00,57.6,41.6,29.73,NW,315,2.5,2.9,55,0.00,,,0.00,WUHU216HW,2013-09-09 00:46:00,
2013-09-08 20:51:00,57.2,41.2,29.73,NW,315,1.8,2.5,55,0.00,,,0.00,WUHU216HW,2013-09-09 00:51:00,
2013-09-08 20:56:00,57.1,41.5,29.73,WNW,293,2.7,2.7,56,0.00,,,0.00,WUHU216HW,2013-09-09 00:56:00,
2013-09-08 21:01:00,56.7,41.1,29.73,WNW,293,0.4,2.7,56,0.00,,,0.00,WUHU216HW,2013-09-09 01:01:00,
2013-09-08 21:06:00,56.5,41.0,29.73,NW,315,1.6,2.7,56,0.00,,,0.00,WUHU216HW,2013-09-09 01:06:00,
2013-09-08 21:11:00,56.3,41.2,29.74,NW,315,1.1,2.7,57,0.00,,,0.00,WUHU216HW,2013-09-09 01:11:00,
2013-09-08 21:16:00,56.2,41.0,29.74,North,0,0.7,1.8,57,0.00,,,0.00,WUHU216HW,2013-09-09 01:16:00,
2013-09-08 21:21:00,55.8,41.7,29.74,NNW,338,1.3,1.8,59,0.00,,,0.00,WUHU216HW,2013-09-09 01:21:00,
2013-09-08 21:26:00,55.4,41.3,29.74,NW,315,2.5,2.5,59,0.00,,,0.00,WUHU216HW,2013-09-09 01:26:00,
2013-09-08 21:31:00,55.3,41.1,29.74,WNW,293,1.3,2.5,59,0.00,,,0.00,WUHU216HW,2013-09-09 01:31:00,
2013-09-08 21:36:00,55.1,41.0,29.74,NNW,338,1.1,2.0,59,0.00,,,0.00,WUHU216HW,2013-09-09 01:36:00,
2013-09-08 21:41:00,54.9,41.7,29.75,NNE,23,1.6,2.0,61,0.00,,,0.00,WUHU216HW,2013-09-09 01:41:00,
2013-09-08 21:46:00,54.7,41.1,29.75,WNW,293,1.8,1.8,60,0.00,,,0.00,WUHU216HW,2013-09-09 01:46:00,
2013-09-08 21:51:00,54.5,41.3,29.75,NW,315,0.9,2.0,61,0.00,,,0.00,WUHU216HW,2013-09-09 01:51:00,
2013-09-08 21:56:00,54.2,41.1,29.75,NNW,338,1.1,2.2,61,0.00,,,0.00,WUHU216HW,2013-09-09 01:56:00,
2013-09-08 22:01:00,54.0,40.9,29.75,NNW,338,0.7,2.2,61,0.00,,,0.00,WUHU216HW,2013-09-09 02:01:00,
2013-09-08 22:06:00,53.8,40.7,29.75,NNW,338,0.4,1.1,61,0.00,,,0.00,WUHU216HW,2013-09-09 02:06:00,
2013-09-08 22:11:00,53.6,41.0,29.76,North,0,0.2,0.9,62,0.00,,,0.00,WUHU216HW,2013-09-09 02:11:00,
2013-09-08 22:16:00,53.6,41.3,29.76,North,0,2.5,2.5,63,0.00,,,0.00,WUHU216HW,2013-09-09 02:16:00,
2013-09-08 22:21:00,53.3,41.0,29.76,NNW,338,1.3,2.5,63,0.00,,,0.00,WUHU216HW,2013-09-09 02:21:00,
2013-09-08 22:26:00,53.1,41.2,29.76,North,0,0.4,1.8,64,0.00,,,0.00,WUHU216HW,2013-09-09 02:26:00,
2013-09-08 22:31:00,52.9,41.1,29.77,North,0,0.4,1.8,64,0.00,,,0.00,WUHU216HW,2013-09-09 02:31:00,
2013-09-08 22:36:00,52.9,41.1,29.77,NW,315,0.4,1.6,64,0.00,,,0.00,WUHU216HW,2013-09-09 02:36:00,
2013-09-08 22:41:00,52.7,40.9,29.77,North,0,1.3,1.8,64,0.00,,,0.00,WUHU216HW,2013-09-09 02:41:00,
2013-09-08 22:46:00,52.7,40.9,29.77,NNW,338,0.0,1.8,64,0.00,,,0.00,WUHU216HW,2013-09-09 02:46:00,
2013-09-08 22:51:00,52.6,40.7,29.78,NNW,338,0.0,1.3,64,0.00,,,0.00,WUHU216HW,2013-09-09 02:51:00,
2013-09-08 22:56:00,52.4,40.5,29.78,NW,315,0.0,0.2,64,0.00,,,0.00,WUHU216HW,2013-09-09 02:56:00,
2013-09-08 23:01:00,52.2,40.3,29.78,NNW,338,0.2,0.9,64,0.00,,,0.00,WUHU216HW,2013-09-09 03:01:00,
2013-09-08 23:06:00,52.0,40.1,29.79,North,0,1.6,1.6,64,0.00,,,0.00,WUHU216HW,2013-09-09 03:06:00,
2013-09-08 23:11:00,52.0,40.1,29.79,NNE,23,0.0,1.6,64,0.00,,,0.00,WUHU216HW,2013-09-09 03:11:00,
2013-09-08 23:16:00,52.2,40.3,29.79,North,0,0.2,1.1,64,0.00,,,0.00,WUHU216HW,2013-09-09 03:16:00,
2013-09-08 23:21:00,52.0,40.1,29.79,North,0,0.0,1.1,64,0.00,,,0.00,WUHU216HW,2013-09-09 03:21:00,
2013-09-08 23:26:00,51.7,39.9,29.79,ESE,113,0.2,0.4,64,0.00,,,0.00,WUHU216HW,2013-09-09 03:26:00,
2013-09-08 23:31:00,51.3,39.5,29.79,West,270,0.4,0.4,64,0.00,,,0.00,WUHU216HW,2013-09-09 03:31:00,
2013-09-08 23:36:00,50.8,39.0,29.79,WSW,248,0.0,0.7,64,0.00,,,0.00,WUHU216HW,2013-09-09 03:36:00,
2013-09-08 23:41:00,50.6,39.3,29.79,SSW,203,0.0,0.7,65,0.00,,,0.00,WUHU216HW,2013-09-09 03:41:00,
2013-09-08 23:46:00,50.4,39.1,29.79,WNW,293,0.4,0.7,65,0.00,,,0.00,WUHU216HW,2013-09-09 03:46:00,
2013-09-08 23:51:00,50.2,38.9,29.79,ESE,113,0.0,0.7,65,0.00,,,0.00,WUHU216HW,2013-09-09 03:51:00,
2013-09-08 23:56:00,50.2,38.9,29.79,SW,225,0.0,0.4,65,0.00,,,0.00,WUHU216HW,2013-09-09 03:56:00,